{"data":{"norad_id":58936,"epoch":"2026-09-20T21:25:19.248096Z","epoch_age_seconds":121809,"freshness":"FRESH","line1":"1 58936U 24027F   26263.89258389  .00001566  00000+0  57465-4 0  9995","line2":"2 58936  53.1593 121.5870 0000808 107.7943 252.3148 15.34392206147237","mean_motion":15.34392206,"eccentricity":8.08e-5,"inclination_deg":53.1593,"raan_deg":121.587,"arg_perigee_deg":107.7943,"mean_anomaly_deg":252.3148,"bstar":5.7465e-5,"rev_number":14723,"period_min":93.848234784373,"perigee_km":462.17366395249,"apogee_km":463.27914747886,"semimajor_km":6840.8634057157,"source":"CELESTRAK","updated_at":"2026-09-21T09:00:33.996805Z"}}